Chehalis, WA
on Thursday, February 28, 2013

Thursday
Previous Day Next Day
Daily Summary
 ActualAverage (KOLM)Record (KOLM)
Temperature
Mean Temperature °F 42°F  
Max Temperature 55°F 51°F 69°F (1992)
Min Temperature 44°F 33°F 14°F (1960)
Degree Days
Heating Degree Days 16 23  
Month to date heating degree days 667  
Since 1 July heating degree days 3722  
Cooling Degree Days 0 0  
Month to date cooling degree days 0  
Year to date cooling degree days 0  
Moisture
Dew Point 48°F   
Average Humidity 94    
Maximum Humidity 100    
Minimum Humidity 82    
Precipitation
Precipitation 0.37 in 0.18 in 1.69 in (1972)
Month to date precipitation 5.27  
Year to date precipitation 13.11  
Wind
Wind Speed 5 mph   
Max Wind Speed 15 mph   
Max Gust Speed 22 mph   
Visibility 6 miles   
Events Rain   

Key: T is trace of precipitation, MM is missing value
Source: NWS Daily Summary
Time(PST)TemperatureDew PointHumidity Pressure Visibility Wind DirectionWind SpeedGust SpeedPrecipitationEvents Conditions
12:35 AM 44.6°F 44.6°F 100% 30.25 in 5.0 miles Calm Calm - 0.02 in Rain Light Rain
12:55 AM 44.6°F 42.8°F 93% 30.24 in 5.0 miles North 3.5 mph - 0.02 in Rain Light Rain
1:15 AM 44.6°F 42.8°F 93% 30.24 in 3.0 miles Calm Calm - N/A Rain Light Rain
1:35 AM 44.6°F 44.6°F 100% 30.24 in 3.0 miles North 4.6 mph - N/A Rain Light Rain
2:15 AM 44.6°F 44.6°F 100% 30.23 in 2.5 miles North 3.5 mph - N/A Rain Light Rain
2:35 AM 44.6°F 44.6°F 100% 30.23 in 2.0 miles Calm Calm - 0.02 in Rain Rain
2:55 AM 44.6°F 44.6°F 100% 30.22 in 2.5 miles Calm Calm - 0.04 in Rain Light Rain
3:15 AM 44.6°F 44.6°F 100% 30.21 in 3.0 miles Calm Calm - N/A Rain Light Rain
3:35 AM 44.6°F 44.6°F 100% 30.21 in 3.0 miles Calm Calm - 0.02 in Rain Light Rain
3:55 AM 44.6°F 44.6°F 100% 30.20 in 4.0 miles Calm Calm - 0.02 in Rain Light Rain
4:15 AM 44.6°F 44.6°F 100% 30.20 in 5.0 miles Calm Calm - 0.01 in Rain Light Rain
4:35 AM 44.6°F 44.6°F 100% 30.20 in 10.0 miles Calm Calm - 0.01 in   Overcast
4:55 AM 44.6°F 44.6°F 100% 30.20 in 3.0 miles NNE 3.5 mph - 0.03 in Rain Light Rain
5:15 AM 44.6°F 44.6°F 100% 30.20 in 5.0 miles North 3.5 mph - N/A Rain Light Rain
5:35 AM 44.6°F 44.6°F 100% 30.20 in 3.0 miles Calm Calm - 0.01 in Rain Light Rain
6:15 AM 44.6°F 44.6°F 100% 30.20 in 2.0 miles Calm Calm - 0.02 in Rain Light Rain
6:35 AM 44.6°F 44.6°F 100% 30.21 in 4.0 miles Calm Calm - 0.03 in Rain Light Rain
6:55 AM 44.6°F 44.6°F 100% 30.20 in 2.0 miles Calm Calm - 0.06 in Rain Rain
7:15 AM 44.6°F 44.6°F 100% 30.20 in 5.0 miles Calm Calm - 0.01 in Rain Light Rain
7:35 AM 44.6°F 44.6°F 100% 30.20 in 5.0 miles SSW 5.8 mph - 0.01 in   Overcast
7:55 AM 44.6°F 44.6°F 100% 30.21 in 7.0 miles SW 3.5 mph - 0.01 in   Overcast
8:15 AM 46.4°F 44.6°F 93% 30.21 in 8.0 miles South 3.5 mph - 0.01 in   Overcast
8:35 AM 46.4°F 46.4°F 100% 30.21 in 5.0 miles South 6.9 mph - 0.01 in Rain Light Rain
8:55 AM 46.4°F 46.4°F 100% 30.22 in 6.0 miles SSE 8.1 mph - 0.02 in Rain Light Rain
9:15 AM 46.4°F 46.4°F 100% 30.22 in 5.0 miles SSE 9.2 mph - 0.01 in Rain Light Rain
9:35 AM 48.2°F 46.4°F 93% 30.22 in 6.0 miles SSE 9.2 mph - 0.01 in Rain Light Rain
9:55 AM 48.2°F 48.2°F 100% 30.22 in 5.0 miles SSE 10.4 mph - 0.02 in Rain Light Rain
10:15 AM 48.2°F 48.2°F 100% 30.22 in 5.0 miles SSE 11.5 mph - 0.01 in Rain Light Rain
10:35 AM 50.0°F 48.2°F 94% 30.23 in 10.0 miles South 11.5 mph 16.1 mph 0.01 in Rain Light Rain
10:55 AM 50.0°F 48.2°F 94% 30.23 in 8.0 miles South 9.2 mph - 0.01 in Rain Light Rain
11:15 AM 50.0°F 48.2°F 94% 30.24 in 5.0 miles South 8.1 mph - N/A Rain Light Rain
11:35 AM 50.0°F 50.0°F 100% 30.25 in 4.0 miles South 9.2 mph - 0.02 in Rain Light Rain
12:15 PM 51.8°F 50.0°F 94% 30.26 in 4.0 miles South 11.5 mph 18.4 mph 0.01 in Rain Light Rain
1:15 PM 53.6°F 50.0°F 88% 30.25 in 10.0 miles South 13.8 mph 18.4 mph N/A Rain Light Rain
1:35 PM 53.6°F 50.0°F 88% 30.25 in 10.0 miles South 13.8 mph 21.9 mph N/A   Overcast
1:55 PM 53.6°F 50.0°F 88% 30.25 in 6.0 miles South 11.5 mph 20.7 mph N/A   Overcast
2:15 PM 53.6°F 50.0°F 88% 30.25 in 10.0 miles South 12.7 mph 20.7 mph N/A   Overcast
2:35 PM 53.6°F 50.0°F 88% 30.26 in 5.0 miles South 13.8 mph 18.4 mph N/A   Overcast
2:55 PM 55.4°F 50.0°F 82% 30.26 in 5.0 miles South 15.0 mph - N/A   Overcast
3:15 PM 55.4°F 50.0°F 82% 30.27 in 5.0 miles South 13.8 mph 18.4 mph N/A   Overcast
3:35 PM 53.6°F 51.8°F 94% 30.30 in 2.5 miles South 10.4 mph 19.6 mph N/A   Mostly Cloudy
3:55 PM 53.6°F 51.8°F 94% 30.30 in 3.0 miles South 6.9 mph - 0.04 in   Mostly Cloudy
4:15 PM 53.6°F 51.8°F 94% 30.31 in 1.8 miles SSW 8.1 mph - 0.02 in Rain Light Rain
4:35 PM 53.6°F 51.8°F 94% 30.31 in 2.5 miles SW 5.8 mph - 0.04 in Rain Light Rain
4:55 PM 53.6°F 51.8°F 94% 30.31 in 1.2 miles SSW 5.8 mph - 0.05 in Rain Rain
5:15 PM 53.6°F 51.8°F 94% 30.31 in 5.0 miles South 8.1 mph - N/A   Overcast
5:35 PM 53.6°F 51.8°F 94% 30.30 in 4.0 miles South 9.2 mph - N/A Rain Light Rain
5:55 PM 53.6°F 51.8°F 94% 30.31 in 3.0 miles South 8.1 mph - 0.01 in Rain Light Rain
6:15 PM 51.8°F 50.0°F 94% 30.31 in 7.0 miles South 9.2 mph - N/A   Mostly Cloudy
6:35 PM 51.8°F 50.0°F 94% 30.32 in 7.0 miles SW 5.8 mph - N/A   Overcast
6:55 PM 51.8°F 50.0°F 94% 30.33 in 8.0 miles South 9.2 mph - N/A   Overcast
7:15 PM 51.8°F 50.0°F 94% 30.34 in 10.0 miles SSW 6.9 mph - N/A   Overcast
7:35 PM 51.8°F 50.0°F 94% 30.34 in 7.0 miles South 8.1 mph - N/A   Overcast
7:55 PM 51.8°F 50.0°F 94% 30.34 in 10.0 miles South 10.4 mph 16.1 mph N/A   Overcast
8:15 PM 51.8°F 50.0°F 94% 30.34 in 10.0 miles SSE 10.4 mph - N/A   Overcast
8:35 PM 51.8°F 50.0°F 94% 30.35 in 10.0 miles South 6.9 mph - N/A   Overcast
8:55 PM 51.8°F 50.0°F 94% 30.34 in 10.0 miles South 11.5 mph - N/A   Overcast
9:15 PM 51.8°F 50.0°F 94% 30.34 in 10.0 miles South 12.7 mph 17.3 mph N/A   Overcast
9:35 PM 53.6°F 48.2°F 82% 30.36 in 10.0 miles SSW 8.1 mph - N/A   Overcast
9:55 PM 51.8°F 48.2°F 88% 30.37 in 10.0 miles South 8.1 mph - N/A   Overcast
10:15 PM 51.8°F 48.2°F 88% 30.37 in 10.0 miles SSW 10.4 mph 16.1 mph N/A   Overcast
10:35 PM 53.6°F 48.2°F 82% 30.37 in 10.0 miles South 11.5 mph - N/A   Overcast
10:55 PM 53.6°F 48.2°F 82% 30.37 in 10.0 miles South 9.2 mph - N/A   Overcast
11:15 PM 53.6°F 50.0°F 88% 30.37 in 10.0 miles South 9.2 mph - N/A   Overcast
11:35 PM 53.6°F 50.0°F 88% 30.37 in 10.0 miles South 11.5 mph - N/A   Overcast
11:55 PM 53.6°F 50.0°F 88% 30.38 in 8.0 miles South 11.5 mph 19.6 mph N/A Rain Light Rain
Moon Phase
Feb. 28 Mar. 04 Mar. 11 Mar. 19 Mar. 27
Sunrise:06:52 AM (PST) Moon Rise:09:47 PM (PST)2/28
Sunset:05:56 PM (PST) Moon Set:07:51 AM (PST)2/28

Copyright © 2014 The Weather Underground, Inc.